Location: Casco Volunteer Fire Department
(44.5576°N, 87.6146°W)
Time: 04:51:17
(UTC+00:00)

COSMOS 2455 - Pass Details

Date: 22 January 2026
Orbit: 899 x 909 km, 67.1° (Epoch: 10 February)

Event Time Altitude Azimuth Distance (km) Brightness Sun altitude
Rises 23:28:58 0° 331° (NNW) 3,548 6.1 -7.9°
Reaches altitude 10° 23:31:37 10° 338° (NNW) 2,602 5.3 -8.3°
Maximum altitude 23:37:22 44° 50° (NE) 1,247 3.2 -9.3°
Drops below altitude 10° 23:43:04 10° 122° (ESE) 2,584 4.8 -10.3°
Sets 23:45:41 0° 128° (SE) 3,520 5.6 -10.7°
